Weather History for Pakanbaru, Indonesia

Change the Weather History Date:

Tuesday, January 1, 2013

  Actual Average Record
Temperature  
Mean Temperature 84 °F -  
Max Temperature 95 °F - - ()
Min Temperature 73 °F - - ()
Cooling Degree Days 20    
Growing Degree Days 34 (Base 50)    
Moisture  
Dew Point 75 °F    
Average Humidity 78    
Maximum Humidity 100    
Minimum Humidity 54    
Precipitation  
Precipitation 1.54 in - - ()
Sea Level Pressure  
Sea Level Pressure 29.73 in    
Wind  
Wind Speed 1 mph ()    
Max Wind Speed 8 mph    
Max Gust Speed -    
Visibility 5.0 miles    
Events Rain    
T = Trace of Precipitation, MM = Missing Value Source: Averaged Metar Reports

Daily Weather History Graph

Daily Weather History Graph

Search for Another Location

Airport:

Trip Planner

Search our weather history database for the weather conditions in past years. The results will help you decide how hot, cold, wet, or windy it might be!

Date:

Astronomy

Jan. 01, 2013 Rise Set
Actual Time 6:14 AM WIB 6:20 PM WIB
Civil Twilight 5:52 AM WIB 6:43 PM WIB
Nautical Twilight 5:26 AM WIB 7:09 PM WIB
Astronomical Twilight 4:59 AM WIB 7:35 PM WIB
Moon 9:23 PM WIB (1/1) 9:00 AM WIB (1/1)
Length of Visible Light 12h 50m
Length of Day
12h 05m
Waning Gibbous, 87% of the Moon is Illuminated
Jan 1
Waning Gibbous
Jan 5
Last Quarter
Jan 12
New
Jan 19
First Quarter
Jan 27
Full

Hourly Weather History & Observations

Time (WIB) Temp. Heat Index Dew Point Humidity Pressure Visibility Wind Dir Wind Speed Gust Speed Precip Events Conditions
1:00 AM 79 °F - 76 °F 88% 29.76 in 5 mi Calm Calm - -   Scattered Clouds
4:00 AM 78 °F - 74 °F 84% 29.72 in 4 mi Calm Calm - -   Overcast
5:00 AM 77.0 °F - 75.2 °F 94% 29.71 in 4.3 mi Calm Calm - N/A   Scattered Clouds
6:00 AM 77.0 °F - 75.2 °F 94% 29.71 in 4.3 mi Calm Calm - N/A   Scattered Clouds
7:00 AM 76 °F - 75 °F 94% 29.75 in 4 mi Calm Calm - -   Overcast
7:00 AM 77.0 °F - 75.2 °F 94% 29.74 in 4.3 mi Calm Calm - N/A   Scattered Clouds
8:00 AM 78.8 °F - 77.0 °F 94% 29.77 in 5.0 mi Calm Calm - N/A   Partly Cloudy
9:00 AM - - - N/A% 29.80 in 5.0 mi NW 5.8 mph - N/A   Partly Cloudy
10:00 AM 85 °F - 76 °F 67% 29.79 in 5 mi NNE 4.6 mph - -   Partly Cloudy
10:00 AM 84.2 °F 92.3 °F 75.2 °F 74% 29.77 in 5.0 mi Calm Calm - N/A   Scattered Clouds
12:00 PM 87.8 °F 99.7 °F 77.0 °F 70% 29.74 in 5.6 mi Calm Calm - N/A   Scattered Clouds
1:00 PM 90 °F - 76 °F 54% 29.74 in 6 mi Calm Calm - -   Partly Cloudy
1:00 PM 89.6 °F 99.8 °F 75.2 °F 62% 29.74 in 6.2 mi Calm Calm - N/A   Scattered Clouds
2:00 PM 89.6 °F 98.2 °F 73.4 °F 59% 29.68 in 6.2 mi North 6.9 mph - N/A   Scattered Clouds
3:00 PM 89.6 °F 96.2 °F 71.6 °F 55% 29.68 in 6.2 mi NNW 4.6 mph - N/A   Mostly Cloudy
4:00 PM 86 °F - 76 °F 67% 29.68 in 6 mi Calm Calm - -   Partly Cloudy
4:00 PM 86.0 °F 96.9 °F 77.0 °F 74% 29.65 in 6.2 mi Calm Calm - N/A   Scattered Clouds
5:00 PM 86.0 °F 95.1 °F 75.2 °F 70% 29.68 in 6.2 mi WSW 5.8 mph - N/A   Scattered Clouds
6:00 PM 86.0 °F 95.1 °F 75.2 °F 70% 29.68 in 5.6 mi Calm Calm - N/A   Scattered Clouds
7:00 PM 85 °F - 76 °F 67% 29.71 in 6 mi Calm Calm - -   Partly Cloudy
7:00 PM 84.2 °F 92.3 °F 75.2 °F 74% 29.71 in 5.6 mi Calm Calm - N/A   Scattered Clouds
8:30 PM 80.6 °F 86.2 °F 75.2 °F 84% 29.74 in 5.0 mi Calm Calm - N/A   Partly Cloudy
9:00 PM 77.0 °F - 75.2 °F 94% 29.77 in 0.6 mi NNW 6.9 mph - N/A   Mostly Cloudy
10:00 PM 74 °F - 74 °F 98% 29.80 in 4 mi NNW 8.1 mph - - Rain Light Rain
10:00 PM 73.4 °F - 73.4 °F 100% 29.80 in 3.1 mi NNW 8.1 mph - N/A Rain Rain